Retour au catalogue

COSMOS 2208

ActifNavigationLEO
NORAD 22080·PAYLOAD·🇷🇺 Russia

Lancé Aug 12, 1992 depuis Plesetsk Cosmodrome

Loading…

Prochains Passages (prochaines 24 heures)

TLE

FraisSource: Space-Track

Époque: Sep 14, 2026, 14:33 UTC

1 22080U 92053A   26257.60633863  .00000042  00000-0  25643-4 0  9998
2 22080  74.0401 110.4859 0013859 276.3769  83.5803 14.31539328779430

Suivez COSMOS 2208 en temps réel avec AllMySat

Download on the App Store